UAE180 EPWA-OMDB

Flight info

Callsign UAE180
Flight time N/A
Altitude 33000
Route XIMBA N195 NATEV DCT PODAN/N0480F360 DCT KEKED/N0483F350 DCT BADOR DCT RONBU DCT ARTAT UP975 TEPKI/N0489F370 UP975 ERGUN UL124 EVSAS UM688 RATVO M688 KEDIM DCT SISIN M688 SIDAD P975 SESRU M677 VUTEB
Aircraft B77W/H-SDE1E2E3FGHIJ2J3J4J5M1RWXY/LB1D1

Departure

Time 2026-05-03 20:48
Airport Warsaw Chopin Airport (EPWA)

Arrival

Time N/A
Airport Dubai International Airport (OMDB)
Time Latitude Longitude Altitude Speed Heading
2026-05-03 20:48 51.97091 21.01089 15327 ft 294 kts 323°
2026-05-03 20:48 51.98771 20.99203 14704 ft 292 kts 323°
2026-05-03 20:48 52.00416 20.97355 14090 ft 291 kts 323°
2026-05-03 20:48 52.02080 20.95483 13448 ft 290 kts 323°
2026-05-03 20:49 52.03731 20.93625 12812 ft 287 kts 323°
2026-05-03 20:49 52.05388 20.91844 12149 ft 284 kts 324°
2026-05-03 20:49 52.07032 20.90112 11548 ft 279 kts 324°
2026-05-03 20:49 52.08639 20.88382 10961 ft 275 kts 322°
2026-05-03 20:50 52.10208 20.86610 10326 ft 274 kts 323°
2026-05-03 20:50 52.11815 20.84945 9821 ft 275 kts 327°
2026-05-03 20:50 52.13445 20.83415 9637 ft 265 kts 328°
2026-05-03 20:50 52.15056 20.81971 9246 ft 265 kts 328°
2026-05-03 20:51 52.16685 20.80429 8479 ft 278 kts 327°
2026-05-03 20:51 52.18459 20.78911 7757 ft 294 kts 336°
2026-05-03 20:51 52.20402 20.78270 7860 ft 276 kts
2026-05-03 20:51 52.22196 20.79196 7095 ft 286 kts 44°
2026-05-03 20:52 52.23186 20.82204 5643 ft 319 kts 72°
2026-05-03 20:52 52.23989 20.85457 5516 ft 295 kts 54°
2026-05-03 20:52 52.25509 20.87463 5109 ft 279 kts 23°
2026-05-03 20:52 52.26806 20.89604 4398 ft 274 kts 78°
2026-05-03 20:53 52.26361 20.92498 3092 ft 274 kts 146°
2026-05-03 20:53 52.24697 20.93579 2676 ft 252 kts 174°
2026-05-03 20:53 52.23006 20.93723 2331 ft 245 kts 187°
2026-05-03 20:53 52.21277 20.93530 1594 ft 257 kts 188°
2026-05-03 20:54 52.19497 20.93961 798 ft 265 kts 151°
2026-05-03 20:54 52.16465 20.96819 337 ft 225 kts 152°
2026-05-03 20:54 52.15245 20.97900 334 ft 166 kts 151°
2026-05-03 20:55 52.14634 20.98455 336 ft 29 kts 150°
2026-05-03 20:55 52.14618 20.98469 333 ft 0 kts 150°